Location: Seattle
(47.6064°N, 122.3308°W)
Time: 00:53:26
(UTC-07:00)

STRAND 1 - Pass Details

Date: 04 April 2023
Orbit: 767 x 779 km, 98.4° (Epoch: 02 June)

Event Time Altitude Azimuth Distance (km) Brightness Sun altitude
Rises 06:05:45 0° 139° (SE) 3,243 ? -6.8°
Reaches altitude 10° 06:08:12 10° 131° (SE) 2,318 ? -6.4°
Maximum altitude 06:12:50 36° 66° (ENE) 1,213 ? -5.7°
Drops below altitude 10° 06:17:28 10° 1° (N) 2,325 ? -4.9°
Sets 06:19:55 0° 353° (N) 3,255 ? -4.5°
